Location: Newark
(11.2914°S, 14.4718°E)
Time: 00:38:45
(UTC+00:00)

Explorer 7 - Pass Details

Date: 26 September 2019
Orbit: 485 x 680 km, 50.3° (Epoch: 22 October)

Event Time Altitude Azimuth Distance (km) Brightness Sun altitude
Rises 04:13:01 0° 344° (NNW) 3,003 10.4 -9.7°
Reaches altitude 10° 04:15:41 10° 356° (N) 2,080 9.7 -9.1°
Maximum altitude 04:19:44 27° 54° (NE) 1,245 9.3 -8.1°
Drops below altitude 10° 04:23:41 10° 111° (ESE) 2,018 11.1 -7.1°
Sets 04:26:13 0° 123° (ESE) 2,897 11.6 -6.5°
